Weather History for Austin Bergstrom, TX

Change the Weather History Date:

Friday, November 1, 2013

  Actual Average Record
Temperature  
Mean Temperature 66 °F 64 °F  
Max Temperature 85 °F 77 °F 88 °F (1950)
Min Temperature 46 °F 51 °F 36 °F (1949)
Degree Days  
Heating Degree Days 0 4  
Month to date heating degree days 0 4  
Since 1 July heating degree days 36 55  
Cooling Degree Days 1 3  
Month to date cooling degree days 1 3  
Year to date cooling degree days 3004 2706  
Growing Degree Days 15 (Base 50)    
Moisture  
Dew Point 47 °F    
Average Humidity 60    
Maximum Humidity 100    
Minimum Humidity 20    
Precipitation  
Precipitation 0.00 in 0.12 in 1.75 in (1998)
Month to date precipitation 0.00 0.12  
Year to date precipitation 34.02 30.08  
Snow  
Snow 0.00 in - - ()
Month to date snowfall 0.0  
Since 1 July snowfall 0.0  
Since 1 September snowfall 0.0  
Snow Depth 0.00 in    
Sea Level Pressure  
Sea Level Pressure 29.90 in    
Wind  
Wind Speed 7 mph (West)    
Max Wind Speed 22 mph    
Max Gust Speed 30 mph    
Visibility 10 miles    
Events      
T = Trace of Precipitation, MM = Missing Value Source: NWS Daily Summary

Daily Weather History Graph

Daily Weather History Graph

Search for Another Location

Airport:

Trip Planner

Search our weather history database for the weather conditions in past years. The results will help you decide how hot, cold, wet, or windy it might be!

Date:

Astronomy

Nov. 01, 2013 Rise Set
Actual Time 7:45 AM CDT 6:43 PM CDT
Civil Twilight 7:20 AM CDT 7:07 PM CDT
Nautical Twilight 6:51 AM CDT 7:36 PM CDT
Astronomical Twilight 6:23 AM CDT 8:04 PM CDT
Moon 5:46 AM CDT (11/1) 5:31 PM CDT (11/1)
Length of Visible Light 11h 47m
Length of Day
10h 58m
Waning Crescent, 4% of the Moon is Illuminated
Nov 1
Waning Crescent
Nov 3
New
Nov 9
First Quarter
Nov 17
Full
Nov 25
Last Quarter

Hourly Weather History & Observations

Time (CDT) Temp. Heat Index Dew Point Humidity Pressure Visibility Wind Dir Wind Speed Gust Speed Precip Events Conditions
12:53 AM 52.0 °F - 51.1 °F 97% 29.89 in 10.0 mi Calm Calm - N/A   Clear
1:53 AM 52.0 °F - 50.0 °F 93% 29.87 in 10.0 mi Calm Calm - N/A   Clear
2:53 AM 52.0 °F - 48.9 °F 89% 29.87 in 10.0 mi Calm Calm - N/A   Clear
3:53 AM 50.0 °F - 48.0 °F 93% 29.87 in 10.0 mi West 3.5 mph - N/A   Clear
4:53 AM 50.0 °F - 48.0 °F 93% 29.87 in 10.0 mi Calm Calm - N/A   Clear
5:53 AM 48.0 °F - 46.0 °F 93% 29.87 in 10.0 mi Calm Calm - N/A   Clear
6:53 AM 48.0 °F - 46.0 °F 93% 29.89 in 10.0 mi Calm Calm - N/A   Clear
7:53 AM 46.9 °F - 46.0 °F 97% 29.90 in 10.0 mi Calm Calm - N/A   Partly Cloudy
8:53 AM 55.9 °F - 50.0 °F 80% 29.91 in 10.0 mi Calm Calm - N/A   Clear
9:53 AM 64.0 °F - 53.1 °F 67% 29.93 in 10.0 mi SW 3.5 mph - N/A   Clear
10:53 AM 71.1 °F - 50.0 °F 47% 29.92 in 10.0 mi South 13.8 mph - N/A   Partly Cloudy
11:53 AM 75.0 °F - 53.1 °F 46% 29.91 in 10.0 mi SSW 12.7 mph - N/A   Scattered Clouds
12:53 PM 78.1 °F - 57.0 °F 48% 29.88 in 10.0 mi SSW 10.4 mph - N/A   Partly Cloudy
1:53 PM 79.0 °F - 60.1 °F 52% 29.85 in 10.0 mi South 15.0 mph - N/A   Partly Cloudy
2:53 PM 82.0 °F 81.4 °F 55.0 °F 39% 29.82 in 10.0 mi SW 9.2 mph - N/A   Partly Cloudy
3:53 PM 84.9 °F - 52.0 °F 32% 29.81 in 10.0 mi West 8.1 mph - N/A   Partly Cloudy
4:53 PM 84.0 °F - 39.0 °F 20% 29.81 in 10.0 mi West 12.7 mph 19.6 mph N/A   Partly Cloudy
5:53 PM 81.0 °F - 39.0 °F 22% 29.83 in 10.0 mi NW 9.2 mph 18.4 mph N/A   Partly Cloudy
6:53 PM 75.0 °F - 37.9 °F 26% 29.87 in 10.0 mi NW 9.2 mph - N/A   Partly Cloudy
7:53 PM 71.1 °F - 39.9 °F 32% 29.92 in 10.0 mi NW 6.9 mph - N/A   Clear
8:53 PM 71.1 °F - 39.0 °F 31% 29.96 in 10.0 mi NNW 18.4 mph 27.6 mph N/A   Clear
9:53 PM 68.0 °F - 41.0 °F 37% 30.01 in 10.0 mi NNW 11.5 mph 18.4 mph N/A   Clear
10:53 PM 66.9 °F - 42.1 °F 40% 30.04 in 10.0 mi NNW 9.2 mph - N/A   Clear
11:53 PM 66.0 °F - 43.0 °F 43% 30.06 in 10.0 mi NW 11.5 mph 19.6 mph N/A   Clear